This demonstration page uses our WeatherBlox Daily Observations layout. Learn more.

Left ArrowRight Arrow

38.88101, -77.10428

Hourly Observations for June 11, 2021

Temp ( °F °C ) Dew Point ( °F °C ) Humidity (%) Winds ( mph kmh ) Pressure ( in mb ) Visibility ( mi km ) Precip ( " mm )
12:06 am 00:06 Cloudy with Light Rain 71 21.7 67 19.4 87 87 ENE 12 19 29.96 1015 9 14 0.00 0.00
12:52 am 00:52 Cloudy with Light Rain 69 20.6 66 18.9 90 90 E 8 13 29.96 1015 7 11 0.02 0.51
1:11 am 01:11 Cloudy with Light Rain 69 20.6 66 18.9 90 90 ENE 6 9 29.96 1015 6 10 0.02 0.51
1:52 am 01:52 Cloudy with Light Rain 68 20 65 18.3 90 90 ENE 10 17 29.93 1014 9 14 0.03 0.76
2:52 am 02:52 Cloudy with Light Rain 68 20 65 18.3 90 90 E 9 15 29.91 1013 10 16 0.01 0.25
3:27 am 03:27 Cloudy 69 20.6 65 18.3 87 87 ENE 8 13 29.91 1013 10 16 0.00 0.00
3:52 am 03:52 Cloudy with Light Rain 69 20.6 65 18.3 87 87 E 7 11 29.90 1013 8 13 0.00 0.00
4:52 am 04:52 Cloudy with Light Rain 69 20.6 66 18.9 90 90 ENE 9 15 29.90 1012 10 16 0.02 0.51
5:52 am 05:52 Cloudy with Rain 70 21.1 67 19.4 90 90 ENE 10 17 29.89 1012 5 8 0.00 0.00
6:52 am 06:52 Cloudy with Light Rain 70 21.1 67 19.4 90 90 ENE 12 19 29.88 1012 8 13 0.02 0.51
7:10 am 07:10 Cloudy with Light Rain 70 21.1 67 19.4 90 90 ENE 13 20 29.88 1012 3 4 0.00 0.00
7:38 am 07:38 Cloudy with Heavy Rain 70 21.1 67 19.4 90 90 NE 9 15 29.89 1012 2 2 0.08 2.03
7:52 am 07:52 Cloudy with Heavy Rain 70 21.1 67 19.4 90 90 ENE 8 13 29.89 1012 1 2 0.21 5.33
7:56 am 07:56 Cloudy with Heavy Rain 70 21.1 67 19.4 90 90 ENE 9 15 29.89 1012 1 1 0.11 2.79
8:07 am 08:07 Cloudy with Heavy Rain 70 21.1 67 19.4 90 90 ENE 10 17 29.89 1012 1 2 0.28 7.11
8:22 am 08:22 Cloudy with Rain 70 21.1 67 19.4 90 90 NE 9 15 29.89 1012 2 3 0.36 9.14
8:52 am 08:52 Cloudy 77 25 72 22 83 83 ENE 10 17 29.86 1011 10 16 N/A
8:59 am 08:59 Cloudy with Light Rain 70 21.1 68 20 93 93 NNE 12 19 29.88 1012 3 5 0.01 0.25
9:48 am 09:48 Cloudy with Rain 70 21 68 20 94 94 NE 12 19 29.88 1012 2 2 0.07 1.78
9:52 am 09:52 Cloudy with Rain 70 21.1 67 19.4 90 90 NE 13 20 29.87 1012 2 2 0.08 2.03
10:07 am 10:07 Cloudy with Light Rain 70 21.1 68 20 93 93 NE 13 20 29.87 1011 3 4 0.07 1.78
10:22 am 10:22 Cloudy with Light Rain 70 21.1 68 20 93 93 ENE 14 22 29.87 1011 3 5 0.08 2.03
10:37 am 10:37 Cloudy with Heavy Rain 70 21.1 68 20 93 93 NE 10 17 29.88 1012 1 2 0.15 3.81
10:52 am 10:52 Cloudy with Heavy Rain 70 21.1 68 20 93 93 NE 12 19 29.88 1012 1 2 0.30 7.62
11:52 am 11:52 Cloudy with Heavy Rain 69 20.6 67 19.4 93 93 NE 16 26 29.87 1012 1 2 0.50 12.70
12:12 pm 12:12 Cloudy with Heavy Rain 69 20.6 67 19.4 93 93 ENE 16 26 29.88 1012 2 3 0.11 2.79
12:26 pm 12:26 Cloudy with Rain 69 20.6 67 19.4 93 93 NE 17 28 29.87 1011 3 5 0.15 3.81
12:52 pm 12:52 Cloudy with Light Rain 69 20.6 67 19.4 93 93 NE 13 20 29.87 1011 4 6 0.19 4.83
1:24 pm 13:24 Cloudy 69 20.6 67 19.4 93 93 NE 14 22 29.86 1011 10 16 0.01 0.25
1:52 pm 13:52 Cloudy 69 20.6 67 19.4 93 93 NE 12 19 29.85 1011 10 16 0.01 0.25
2:39 pm 14:39 Cloudy with Light Rain 69 20.6 66 18.9 90 90 ENE 16 26 29.85 1011 10 16 0.00 0.00
2:52 pm 14:52 Cloudy with Light Rain 69 20.6 66 18.9 90 90 NE 15 24 29.84 1011 10 16 0.00 0.00
3:03 pm 15:03 Cloudy with Light Rain 69 20.6 67 19.4 93 93 ENE 16 26 29.85 1011 4 6 0.00 0.00
3:26 pm 15:26 Cloudy with Light Rain 69 20.6 66 18.9 90 90 ENE 14 22 29.85 1011 2 3 0.01 0.25
3:52 pm 15:52 Cloudy with Light Rain 69 20.6 66 18.9 90 90 ENE 12 19 29.83 1010 3 4 0.02 0.51
4:12 pm 16:12 Cloudy with Mist and Fog 69 20.6 66 18.9 90 90 ENE 15 24 29.83 1010 4 6 0.01 0.25
4:52 pm 16:52 Cloudy 69 20.6 66 18.9 90 90 ENE 10 17 29.81 1010 10 16 0.01 0.25
5:10 pm 17:10 Cloudy 68 20 66 18.9 93 93 ENE 13 20 29.82 1010 10 16 N/A
5:52 pm 17:52 Cloudy with Mist and Fog 68 20 66 18.9 93 93 ENE 10 17 29.81 1009 3 5 N/A
6:52 pm 18:52 Cloudy 68 20 65 18.3 90 90 ENE 12 19 29.81 1010 8 13 N/A
7:52 pm 19:52 Cloudy 68 20 65 18.3 90 90 ENE 13 20 29.83 1010 10 16 N/A
8:52 pm 20:52 Cloudy 68 20 65 18.3 90 90 NE 14 22 29.82 1010 9 14 N/A
9:52 pm 21:52 Cloudy 68 20 65 18.3 90 90 ENE 14 22 29.83 1010 10 16 N/A
10:52 pm 22:52 Cloudy 67 19.4 64 17.8 91 91 ENE 13 20 29.84 1011 10 16 N/A
11:31 pm 23:31 Cloudy 67 19.4 64 17.8 91 91 ENE 10 17 29.84 1010 10 16 N/A
11:52 pm 23:52 Cloudy 67 19.4 64 17.8 91 91 ENE 13 20 29.83 1010 10 16 N/A

Powered by AerisWeather